DRAGRACER 1 (ALCHEMY) (46954 NORAD) Tracking and Keplerian Element Data

This shows tracking and keplerian element data for the satellite.

Feedback or suggestion? Click here.




ElementValue
Catalog46954
NameDRAGRACER 1 (ALCHEMY)
Epoch Orbit895
Epoch Day17.96809994
Epoch Year2021
RAAN157.5251
Inclination97.3582
Eccentricity0.0010138
Argument of Perigee145.6882
Mean Anonmoly214.5013
Mean Motion15.26986599
Decay Rate0.00045546
L11 46954U 20085AB 21017.96809994 .00045546 00000-0 17111-2 0 9995
L22 46954 97.3582 157.5251 0010138 145.6882 214.5013 15.26986599 8955

Live tracking and technical data element details for DRAGRACER 1 (ALCHEMY) (NORAD 46954). DRAGRACER 1 (ALCHEMY) can be tracked NOW for your location showing map with azimuth and elevation plus other details from your city location.

Track the satellite on the map from your city or location and see movement details for azimuth, elevation, latitude, longitude, range, height, and movement on the map or in text.







IsCatalogInMostPopularTable: catalog: 46954, numindb: 15
Update: records affected: 1



GetName: 46954 DRAGRACER 1 (ALCHEMY)

Hit Count: updated at: Tue, 19 Jan 2021 01:57:52 GMT